Regional Weather Roundup
Issued by NWS

Home | Current Version | Previous Version | Graphics & Text | Print | Product List | Glossary Off
Versions: 1 2 3 4 5 6 7 8 9 10 11 12 13 14 15 16 17 18 19 20 21 22 23 24 25 26 27 28 29 30 31 32 33 34 35 36 37 38 39 40 41 42 43 44 45 46 47 48 49 50

000
ASUS43 KMKX 302321
RWRWI

WISCONSIN REGIONAL WEATHER ROUNDUP
NATIONAL WEATHER SERVICE MILWAUKEE/SULLIVAN WI
600 PM CDT SUN APR 30 2017

NOTE: "FAIR" INDICATES FEW OR NO CLOUDS BELOW 12,000 FEET WITH NO
SIGNIFICANT WEATHER AND/OR OBSTRUCTIONS TO VISIBILITY.

WIZ001-002-006>008-014>016-023>028-010000-
NORTHWEST WISCONSIN

CITY           SKY/WX    TMP DP  RH WIND       PRES   REMARKS
SUPERIOR ARPT  CLOUDY    39  34  80 NE14G22   29.97F WCI  31
ASHLAND        CLOUDY    41  27  57 NE17G26   29.99F
HAYWARD        CLOUDY    41  30  65 NE20G26   29.91F
SIREN          CLOUDY    45  26  48 NE15G25   29.89F
CUMBERLAND     CLOUDY    41  32  70 NE21      29.85F
RICE LAKE      CLOUDY    45  32  61 N20       29.86F
CHETEK         CLOUDY    48  32  54 NE9G16    29.83F
LADYSMITH      CLOUDY    52  28  39 E15G21    29.87S
EAU CLAIRE     CLOUDY    50  36  58 E16G24    29.80F
MENOMONIE      CLOUDY    51  35  55 E13G21    29.80F
NEW RICHMOND   CLOUDY    45  32  61 NE20      29.82F
OSCEOLA        CLOUDY    46  33  62 NE17G29   29.85F
$$

WIZ003>005-009-010-017-018-010000-
NORTH CENTRAL WISCONSIN

CITY           SKY/WX    TMP DP  RH WIND       PRES   REMARKS
MANITOWISH WTR CLOUDY    43  18  36 NE15G21   29.91S
ARBOR VITAE    CLOUDY    47  23  38 NE12G18   29.88F
WOODRUFF       CLOUDY    47  23  38 NE12G18   29.88F
RHINELANDER    CLOUDY    47  34  60 E16       29.89F
EAGLE RIVER    CLOUDY    48  28  45 E13       29.89F
LAND O LAKES   CLOUDY    44  22  42 NE9       29.92F
PHILLIPS       CLOUDY    50  27  40 NE7       29.86F
TOMAHAWK       CLOUDY    45  33  64 E12G21    29.88F
MEDFORD        CLOUDY    45  34  66 E20       29.83F
MERRILL        CLOUDY    45  35  67 E16       29.87F
$$

WIZ029-030-035-036-043>047-010000-
CENTRAL WISCONSIN

CITY           SKY/WX    TMP DP  RH WIND       PRES   REMARKS
WAUSAU         CLOUDY    40  35  83 E10G22    29.86F WCI  33
MOSINEE        CLOUDY    39  36  87 NE18G26   29.87F WCI  30
MARSHFIELD     CLOUDY    42  35  76 E17G28    29.83F
STEVENS POINT  CLOUDY    37  35  90 E16G26    29.85F WCI  28
WAUPACA        CLOUDY    41  37  85 NE8G21    29.87F
WAUTOMA        CLOUDY    39  37  92 NE18G25   29.85  WCI  30
WISC RAPIDS    CLOUDY    40  36  86 E10G22    29.85F WCI  33
CAMP DOUGLAS   CLOUDY    41  37  84 NE17      29.81F
$$

WIZ011>013-019>022-031-037>040-048>050-010000-
NORTHEAST WISCONSIN

CITY           SKY/WX    TMP DP  RH WIND       PRES   REMARKS
ANTIGO         CLOUDY    39  34  81 E13G22    29.88F WCI  32
SHAWANO        CLOUDY    41  37  85 E16G24    29.92F
OCONTO         CLOUDY    38  35  89 NE13G21   29.94S WCI  30
STURGEON BAY   CLOUDY    37  35  92 NE10      29.94S WCI  30
GREEN BAY      CLOUDY    40  38  93 NE16      29.91S WCI  31
MANITOWOC      CLOUDY    39  36  89 NE9G23    29.88S WCI  33
APPLETON       CLOUDY    37  37 100 NE14G22   29.85F FOG     WCI  29
CLINTONVILLE   CLOUDY    37  34  87 NE14G26   29.90F WCI  29
OSHKOSH        CLOUDY    40  37  89 NE14G23   29.85F WCI  32
$$

WIZ032>034-041-042-053>061-010000-
SOUTHWEST WISCONSIN

CITY           SKY/WX    TMP DP  RH WIND       PRES   REMARKS
LA CROSSE      CLOUDY    46  38  73 E14G20    29.78F
SPARTA         CLOUDY    41  38  88 NE13G21   29.81F
VIROQUA        CLOUDY    41  38  91 E18       29.76F
BOSCOBEL       CLOUDY    45  39  79 VRB7G17   29.75F
PRAIRIE DU CHI LGT RAIN  43  39  84 NE10      29.68F
PLATTEVILLE    CLOUDY    44  43  97 NE21G29   29.69F
$$

WIZ056-057-062-063-064-067-068-010000-
SOUTH CENTRAL WISCONSIN

CITY           SKY/WX    TMP DP  RH WIND       PRES   REMARKS
REEDSBURG      CLOUDY    40  39  96 NE14G24   29.77F WCI  33
BARABOO/DELLS  CLOUDY    40  38  91 NE14G24   29.77F WCI  32
LONE ROCK      CLOUDY    43  38  82 E16G28    29.77S
MINERAL POINT  CLOUDY    43  43 100 NE17G23   29.71F
MADISON        LGT RAIN  42  40  92 NE13      29.77F
MIDDLETON      CLOUDY    43  42  95 E14       29.77F
WATERTOWN      CLOUDY    41  41 100 NE10      29.78F
MONROE         DRIZZLE   43  41  93 NE15G22   29.73S
JANESVILLE     CLOUDY    45  43  93 E21G26    29.75F
$$

WIZ051-052-058>065-066-070>072-010000-
SOUTHEAST WISCONSIN

CITY           SKY/WX    TMP DP  RH WIND       PRES   REMARKS
MILWAUKEE      CLOUDY    42  41  96 NE16      29.80F VSB 3/4
WAUKESHA       CLOUDY    39  37  93 NE12G25   29.79F WCI  32
MILWAUKEE/TIMM CLOUDY    39  37  93 NE16G25   29.80F WCI  30
RACINE         CLOUDY    42  40  92 NE12      29.82R
KENOSHA        CLOUDY    43  41  93 NE13      29.79R
FOND DU LAC    CLOUDY    40  36  86 NE16      29.85F FOG     WCI  31
SHEBOYGAN      CLOUDY    39  37  92 NE17      29.85F WCI  30
WEST BEND      CLOUDY    39  39 100 NE14G20   29.82F WCI  31
JUNEAU         CLOUDY    40  39  95 NE15G23   29.80F FOG     WCI  32
$$

LSZ147-162-010000-
LAKE SUPERIOR

STATION/POSITION TIME  TEMP    WIND        PRES    WAVE
                       AIR SEA DIR/SP/G            HT/PER
                 (UTC) (F)     (DEG/KT/KT) (MB)    (FT/S)
DEVILS ISLAND    2300   38      60/ 16/ 18 1016.6F
PORT WING        2300   43      50/ 15/ 25 1015.2
SAXON HARBOR     2300   39      50/ 16/ 21 1014.6
$$

LMZ867-665-643>646-010000-
LAKE MICHIGAN

STATION/POSITION TIME  TEMP    WIND        PRES    WAVE
                       AIR SEA DIR/SP/G            HT/PER
                 (UTC) (F)     (DEG/KT/KT) (MB)    (FT/S)
CHAMBERS ISLAND  2240   38      30/ 13/ 21 1014.2S
N MID LAKE BUOY  2250   36 37   70/ 21/ 25 1015.1F   5/ 6
NORTHPORT PIER   2301   38      60/ 20/ 25 1014.6
KEWAUNEE LAKESHO 2254   38      30/ 19/ 23 1012.4R
SHEBOYGAN LAKESH 2300   39      20/ 24/ 27 1010.9F
PORT WASHINGTON  2230   41      40/ 14/ 18 1011.5F
MILWAUKEE LAKESH 2300   40      20/ 17/ 20   N/A
S MID LAKE BUOY  2250   42 41   50/ 14/ 16 1008.6F   3/ 6
KENOSHA   LAKESH 2300   41      30/ 17/ 19 1008.8
$$

TC  - TEMPERATURE IN CELSIUS
VSB - VISIBILITY IN STATUTE MILES
WCI - WIND CHILL INDEX
HX  - HEAT INDEX




USA.gov is the U.S. government's official web portal to all federal, state and local government web resources and services.